This is the latest recevied weather packets stored in our database for station/object KC8JWT. If no packets are shown the sender has not sent any weather packets the latest 10 day(s).
| Time | Temp. | Humidity | Pressure | Rain* | Wind** | Luminosity | Snow |
|---|---|---|---|---|---|---|---|
| 1777362147 | 12.78° C | 99% | 1014.8 hPa | 1.27 mm | - | 0 W/m² | - |
| 1777361845 | 12.78° C | 99% | 1014.2 hPa | 3.05 mm | - | 0 W/m² | - |
| 1777361541 | 12.78° C | 99% | 1013.8 hPa | 8.89 mm | - | 0 W/m² | - |
| 1777361239 | 12.78° C | 99% | 1014 hPa | 13.72 mm | - | 0 W/m² | - |
| 1777360936 | 12.78° C | 99% | 1014.1 hPa | 13.72 mm | - | 0 W/m² | - |
| 1777360634 | 12.78° C | 99% | 1014.1 hPa | 11.94 mm | - | 0 W/m² | - |
| 1777360330 | 12.78° C | 99% | 1014.1 hPa | 9.65 mm | - | 0 W/m² | - |
| 1777360028 | 12.78° C | 99% | 1014.2 hPa | 6.6 mm | - | 0 W/m² | - |
| 1777359724 | 12.78° C | 99% | 1013.9 hPa | 3.05 mm | - | 0 W/m² | - |
| 1777359421 | 12.78° C | 98% | 1013.9 hPa | 1.27 mm | - | 0 W/m² | - |
| 1777359117 | 12.78° C | 98% | 1014.5 hPa | 1.78 mm | - | 0 W/m² | - |
| 1777358815 | 13.33° C | 97% | 1013.6 hPa | 4.83 mm | - | 0 W/m² | - |
| 1777358512 | 13.33° C | 97% | 1013.2 hPa | 3.05 mm | - | 0 W/m² | - |
| 1777358210 | 13.33° C | 96% | 1013.6 hPa | 0 mm | - | 0 W/m² | - |
| 1777357909 | 13.33° C | 96% | 1014.4 hPa | 0 mm | - | 0 W/m² | - |
| 1777357605 | 13.33° C | 96% | 1014.1 hPa | 1.27 mm | - | 0 W/m² | - |
| 1777357302 | 13.33° C | 96% | 1013.8 hPa | 1.27 mm | - | 0 W/m² | - |
| 1777356999 | 13.33° C | 97% | 1013.6 hPa | 0 mm | - | 0 W/m² | - |
| 1777356696 | 13.33° C | 97% | 1013.7 hPa | 0 mm | - | 0 W/m² | - |
| 1777356394 | 13.33° C | 98% | 1014 hPa | 0 mm | - | 0 W/m² | - |
| 1777356090 | 13.89° C | 98% | 1014.1 hPa | 0 mm | - | 0 W/m² | - |
| 1777355787 | 13.89° C | 99% | 1013.8 hPa | 0 mm | - | 0 W/m² | - |
| 1777355484 | 13.89° C | 98% | 1014.2 hPa | 0 mm | - | 0 W/m² | - |
| 1777355180 | 13.89° C | 98% | 1014.9 hPa | 0 mm | - | 0 W/m² | - |
| 1777354876 | 13.89° C | 98% | 1015.2 hPa | 3.05 mm | - | 0 W/m² | - |
* Rain latest hour (hover to see other rain measurements)
** Current wind speed in m/s (hover to see current wind gust speed)